Location: Ajisawe
(8.4333°N, 4.3833°E)
Time: 00:37:01
(UTC+00:00)

S-56A Canister/Altair - Pass Details

Date: 28 April 2021
Orbit: 631 x 2501 km, 38.9° (Epoch: 15 May)

Event Time Altitude Azimuth Distance (km) Brightness Sun altitude
Exits shadow 04:06:11 29° 309° (NW) 1,148 8.1 -20.2°
Maximum altitude 04:08:24 87° 220° (SW) 633 7.0 -19.7°
Drops below altitude 10° 04:13:03 10° 131° (SE) 2,121 10.2 -18.6°
Sets 04:15:36 0° 131° (SE) 3,171 11.1 -18.0°
